| time (UTC) | temp F | wind direction | speed MPH | gust MPH | rain 1hr in | rain 24hr in | rain mn in | humidity % | barometer mb |
| 20260901203017 | 77 | 180 | 2.0 | 11.0 | 0.00 | 0.02 | 0.00 | 45 | 1017.1 |
| 20260901200016 | 76 | 180 | 5.0 | 14.0 | 0.00 | 0.02 | 0.00 | 45 | 1017.7 |
| 20260901193016 | 75 | 180 | 4.0 | 13.0 | 0.00 | 0.02 | 0.00 | 49 | 1018.0 |
| 20260901190017 | 75 | 180 | 4.0 | 14.0 | 0.00 | 0.02 | 0.00 | 49 | 1018.5 |
| 20260901183016 | 71 | 180 | 1.0 | 11.0 | 0.00 | 0.02 | 0.00 | 56 | 1018.5 |
| 20260901180016 | 69 | 0.0 | 5.0 | 0.00 | 0.02 | 0.00 | 63 | 1018.6 | |
| 20260901173017 | 69 | 0.0 | 0.0 | 0.00 | 0.02 | 0.00 | 65 | 1018.8 | |
| 20260901170016 | 65 | 0.0 | 0.0 | 0.00 | 0.02 | 0.00 | 71 | 1018.4 | |
| 20260901163016 | 63 | 0.0 | 0.0 | 0.00 | 0.02 | 0.00 | 72 | 1017.7 | |
| 20260901160016 | 62 | 0.0 | 0.0 | 0.00 | 0.02 | 0.00 | 75 | 1017.4 | |
| 20260901153016 | 61 | 0.0 | 0.0 | 0.00 | 0.02 | 0.00 | 80 | 1017.4 | |
| 20260901150056 | 60 | 0.0 | 0.0 | 0.00 | 0.02 | 0.00 | 80 | 1017.1 | |
| 20260901143056 | 59 | 0.0 | 0.0 | 0.00 | 0.02 | 0.00 | 81 | 1016.7 | |
| 20260901140015 | 58 | 0.0 | 0.0 | 0.00 | 0.02 | 0.00 | 81 | 1016.4 | |
| 20260901133016 | 57 | 0.0 | 0.0 | 0.00 | 0.02 | 0.00 | 83 | 1016.2 | |
| 20260901130015 | 57 | 0.0 | 0.0 | 0.00 | 0.02 | 0.00 | 82 | 1015.9 | |
| 20260901123055 | 57 | 0.0 | 3.0 | 0.00 | 0.02 | 0.00 | 80 | 1016.5 | |
| 20260901120057 | 57 | 0.0 | 4.0 | 0.00 | 0.02 | 0.00 | 82 | 1016.9 | |
| 20260901113018 | 57 | 0.0 | 5.0 | 0.00 | 0.02 | 0.00 | 83 | 1016.6 | |
| 20260901110018 | 56 | 0.0 | 0.0 | 0.00 | 0.02 | 0.00 | 85 | 1017.6 | |
| 20260901103017 | 56 | 0.0 | 0.0 | 0.00 | 0.02 | 0.00 | 82 | 1018.3 | |
| 20260901100017 | 56 | 0.0 | 0.0 | 0.00 | 0.02 | 0.00 | 80 | 1018.6 | |
| 20260901093017 | 57 | 0.0 | 0.0 | 0.00 | 0.02 | 0.00 | 77 | 1018.8 | |
| 20260901090017 | 57 | 0.0 | 4.0 | 0.00 | 0.02 | 0.00 | 77 | 1019.1 | |
| 20260901083017 | 56 | 0.0 | 1.0 | 0.00 | 0.02 | 0.00 | 80 | 1019.0 | |
| 20260901080017 | 57 | 0.0 | 0.0 | 0.00 | 0.02 | 0.00 | 82 | 1019.4 | |
| 20260901073057 | 58 | 0.0 | 0.0 | 0.00 | 0.02 | 0.00 | 80 | 1019.2 | |
| 20260901070057 | 59 | 0.0 | 3.0 | 0.00 | 0.02 | 0.00 | 78 | 1018.9 | |
| 20260901063017 | 60 | 0.0 | 5.0 | 0.00 | 0.02 | 0.00 | 73 | 1019.0 | |
| 20260901060057 | 60 | 0.0 | 0.0 | 0.00 | 0.02 | 0.02 | 71 | 1018.7 | |
| 20260901053016 | 62 | 158 | 1.0 | 8.0 | 0.00 | 0.02 | 0.02 | 68 | 1018.8 |
| 20260901050056 | 61 | 113 | 4.0 | 12.0 | 0.00 | 0.02 | 0.02 | 67 | 1018.5 |
| 20260901043056 | 59 | 113 | 2.0 | 11.0 | 0.00 | 0.02 | 0.02 | 77 | 1018.5 |
| 20260901040016 | 59 | 0.0 | 4.0 | 0.00 | 0.02 | 0.02 | 85 | 1018.8 | |
| 20260901033018 | 59 | 0.0 | 4.0 | 0.00 | 0.02 | 0.02 | 85 | 1018.0 | |
| 20260901030017 | 59 | 0.0 | 3.0 | 0.00 | 0.02 | 0.02 | 85 | 1016.9 | |
| 20260901023057 | 59 | 0.0 | 6.0 | 0.00 | 0.02 | 0.02 | 85 | 1015.9 | |
| 20260901020017 | 59 | 0.0 | 6.0 | 0.00 | 0.02 | 0.02 | 87 | 1016.4 | |
| 20260901013017 | 60 | 158 | 1.0 | 7.0 | 0.02 | 0.02 | 0.02 | 86 | 1017.1 |
| 20260901010017 | 60 | 158 | 2.0 | 12.0 | 0.02 | 0.02 | 0.02 | 82 | 1018.5 |
| 20260901003017 | 63 | 180 | 6.0 | 14.0 | 0.00 | 0.00 | 0.00 | 73 | 1019.0 |
| 20260901000017 | 65 | 180 | 6.0 | 18.0 | 0.00 | 0.00 | 0.00 | 65 | 1019.3 |
| 20260831233017 | 67 | 158 | 9.0 | 23.0 | 0.00 | 0.00 | 0.00 | 58 | 1019.3 |
| 20260831230017 | 73 | 180 | 8.0 | 24.0 | 0.00 | 0.00 | 0.00 | 47 | 1017.8 |
| 20260831223057 | 77 | 180 | 6.0 | 21.0 | 0.00 | 0.00 | 0.00 | 42 | 1015.7 |
| 20260831220017 | 79 | 180 | 3.0 | 13.0 | 0.00 | 0.00 | 0.00 | 38 | 1015.4 |
| 20260831213017 | 81 | 180 | 3.0 | 12.0 | 0.00 | 0.00 | 0.00 | 37 | 1016.1 |
| 20260831210057 | 81 | 180 | 3.0 | 11.0 | 0.00 | 0.00 | 0.00 | 38 | 1016.3 |